Theta_e
274 273 272 271 270 270 269 269 270 269 268 268 268 268 268 268 267 268 267 266 267 267
273 272 271 270 270 270 270 269 269 268 268 268 268 268 267 267 267 267 267 267 267 267
272 271 271 270 269 269 269 268 268 267 267 267 267 267 267 266 266 266 266 267 267 267
271 270 270 269 268 268 268 267 266 266 266 266 266 266 266 266 266 266 265 266 267 267
270 269 268 267 267 267 266 266 266 265 265 265 265 265 265 265 265 265 265 266 267 267
268 267 266 266 265 265 265 264 264 265 264 264 264 264 265 265 265 266 266 267 267 268
266 265 265 264 264 264 264 263 263 263 263 263 264 264 264 266 266 266 267 269 270 270
264 264 263 263 263 262 262 263 263 263 262 263 263 265 266 268 268 269 269 270 270 269
261 261 261 261 261 261 261 261 261 261 261 262 263 267 270 271 269 269 269 268 268 269
258 259 259 259 260 259 260 260 260 261 261 261 262 268 271 272 270 269 268 268 268 268
256 256 257 258 258 258 259 259 260 260 261 261 262 269 271 272 271 269 269 269 268 268
255 256 257 257 257 258 259 259 259 261 260 260 260 267 271 272 269 269 268 269 269 268
257 255 255 256 257 259 258 259 261 261 260 260 260 266 271 272 271 267 269 267 267 269
259 258 257 257 257 258 258 259 258 259 260 261 262 264 271 273 270 269 266 265 265 265
Wind_Speed
6 5 5 6 7 6 7 7 10 7 9 10 10 9 9 7 8 9 9 11 10 8
7 8 6 8 7 6 8 9 10 10 11 10 10 10 10 8 10 9 10 10 11 9
8 7 7 7 9 9 9 10 11 11 11 11 11 10 10 9 10 11 9 9 10 11
7 8 8 8 9 10 11 11 11 12 12 11 11 11 10 11 12 12 12 12 12 13
8 8 8 9 11 11 11 11 12 12 11 11 11 11 11 11 12 14 14 14 14 15
8 8 9 10 11 11 11 11 11 11 11 12 12 12 11 11 13 14 15 15 15 15
8 9 10 11 11 11 11 11 10 10 11 11 12 13 12 13 14 15 14 14 14 13
9 9 9 10 11 11 10 10 10 11 11 11 11 9 13 13 13 12 13 13 13 13
7 8 9 10 11 11 11 10 10 10 11 12 10 21 23 20 11 11 12 12 12 12
7 8 9 9 9 10 11 10 10 10 10 11 11 22 23 24 10 11 12 12 12 11
6 7 8 9 9 9 9 10 10 10 10 11 10 22 23 23 11 10 12 12 12 12
5 7 7 9 9 9 9 10 8 10 10 11 12 22 23 20 10 11 10 11 9 10
6 6 7 7 9 7 8 9 9 11 10 11 13 19 23 20 8 10 6 7 8 18
6 7 6 6 6 6 8 9 9 10 10 11 10 11 23 24 10 8 6 7 9 9
Wind_Direction
343 337 330 324 318 306 310 315 310 316 312 304 301 301 299 297 294 293 299 289 284 284
340 331 316 313 306 310 311 311 313 311 304 301 298 300 300 294 293 294 293 290 286 281
322 317 314 315 317 313 310 312 308 306 303 301 300 301 297 295 296 296 289 288 292 292
320 318 318 316 315 315 314 312 309 304 302 301 302 301 300 297 297 295 294 288 286 288
319 322 322 322 320 320 315 312 307 307 304 304 303 302 299 302 298 289 289 288 290 290
322 327 326 322 318 318 312 308 305 308 305 307 303 304 302 297 285 284 285 288 288 283
331 334 327 318 318 317 314 309 309 311 307 306 305 309 302 292 285 280 280 280 289 293
330 332 321 322 323 317 314 315 314 314 311 308 305 305 299 295 293 307 305 303 300 301
331 329 324 322 321 315 316 320 319 316 312 309 311 313 312 321 316 311 302 299 296 296
333 325 318 315 316 318 321 319 315 313 314 308 307 313 324 320 316 299 296 300 300 301
318 312 311 319 316 315 317 314 319 310 309 309 307 324 321 319 317 300 305 302 302 303
302 312 316 315 313 313 313 315 310 309 312 310 305 318 322 325 319 305 318 318 322 319
300 293 304 297 307 309 306 304 310 309 310 305 300 311 323 330 326 315 336 322 331 332
311 308 285 290 300 298 300 300 301 300 300 296 288 302 323 327 336 325 354 342 336 333